THOR ABLESTAR DEB, 545

Orbit data source: Space-Track

THOR ABLESTAR DEB, 545 is space debris in LEO originally from a launch on Thu, 29 Jun 1961 UTC launched from the Air Force Eastern Test Range (AFETR). Debris objects in space refer to the collection of defunct objects orbiting the Earth. Examples of debris include non-operational satellites, rocket bodies, and fragments generated from explosions, collisions, or faulty payload assembly.

Loading next visibility...
Identifier
545, 1961-015GE
Orbit
LEO
Country
Flag of USUS
Related business
Manufacturer
Unknown
Mission
Spacecraft
Bus & Motor
Unknown
Mass
Unknown
Launch date (UTC)
1961-06-29 (65 years ago)
Launch vehicle
Unknown
Launch site
Air Force Eastern Test Range (AFETR)
Object type
Payload
Rocket body
Debris
Shape & HBR
Unknown shape, 0.1 m
Radar Cross Section
Medium (>0.1 m² and <1 m²)

Expand to show TLE details & history
Last TLE update: 22 hours ago

TLE from 22 hours ago
0 THOR ABLESTAR DEB
1 00545U 61015GE  26253.94764286  .00000151  00000-0  22592-3 0  9991
2 00545  67.2305  75.5654 0157977 340.9990  18.5228 13.71129523242043
Epoch: 2026-09-10T22:44Z
TLE epoch observation values (Epoch: 2026-09-10T22:44:36.343Z)
Latitude
0.00005°
Longitude
104.43595°
Altitude
887.334 km
Speed
7.464 km/s
True Right ascension
05h 02m 15s
True Declination
0° 00' 00"
Sunlit
Object was in daylight at epoch
Visualization orbit readout
Latitude
Unknown
Longitude
Unknown
Altitude
Unknown
Speed
Unknown
Apparent Right ascension
Unknown
Apparent Declination
Unknown
Sunlit
N/A
Visualization observer readout
Local Sidereal Time
12:58:53
Azimuth
Unknown
Elevation
Unknown
Doppler factor
Unknown
Orbital elements
Apogee altitude
1,110.339 km
Perigee altitude
877.418 km
Semi-major axis
7,372.015 km
Eccentricity
0.0158
Inclination
67.2305°
RAAN
75.5654°
Arg. of periapsis
340.999°
True anomaly
19.10885°
Mean anomaly
18.5228°
Eccentric anomaly
18.81472°
Mean motion
3.42897 °/min
Orbital period
104.99 mins
BSTAR
0.00022592
Loading maneuver chart data...
Computing Atmospheric mass density...

Documentation

Showing up to 5 results
|